North Platte Regional Airport Lee Bird Field
KLBF : rendu visible

Aérodrome :











RETROUVEZ-NOUS SUR...

 
LOGIN :

S'inscrire | Disclaimer

   EN    FR    IT 

 









Légende :    VFR   VFR Marginal   IFR   IFR Intensif   IFR Très Intensif
Visi : 
Plafond : 
>= 8 km
>= 3000ft
5 à 8 km
1000 à 3000 ft
1500m à 5 km
500 à 1000 ft
800 à 1500m
200 à 500 ft
< 800m
< 200 ft
Symboles :   Orages  Brouillard  Fortes neiges  Fortes précipitations  Vent > 20 kt






- Altitude de l'aérodrome : 2777 ft
- Code IATA : LBF


KLBF - North Platte Regional Lee Bird Field

DERNIER METAR :
  • 271253Z AUTO 00000KT 10SM CLR 12/09 A3001 RMK AO2 SLP147 T01170089

METARs EXPIRÉS :
  • 271153Z AUTO 00000KT 10SM CLR 08/06 A3000 RMK AO2 SLP147 T00780061 10122 20067 53004
  • 271053Z AUTO 00000KT 10SM CLR 08/06 A2999 RMK AO2 SLP143 T00780056

TAF KLBF
Valide du 27 à 12h jusqu'au 28 à 12h UTC


271120Z 2712/2812 VRB05KT P6SM FEW250
FM271600 03009KT P6SM FEW250
FM280200 06005KT P6SM FEW250
FM280700 33004KT P6SM OVC150
FIR KZDV / Amérique du Nord



MET'MAP, la Météo Aéronautique d'un coup d'oeil ! - Copyright ORBIFLY Décembre 2007 - Disclaimer

ORBIFLY MET'MAP TEAM :

Programmation & Développement : Alexandra Zaïnal
Sur une idée originale de : Baudouin d'Aumeries
Assistance à la programmation : Marc-Olivier Méhu
Soutien technique & logistique : Manuel Goepfert

Contact : metmap@orbifly.com




SOURCES & CREDITS :

   NOAA       Earth
Advisory